Weather History for Cheraw, SC

Change the Weather History Date:

Tuesday, April 2, 2013

  Actual Average (KFLO) Record (KFLO)
Temperature  
Mean Temperature 52 °F 60 °F  
Max Temperature 64 °F 72 °F 89 °F (1978)
Min Temperature 39 °F 48 °F 34 °F (2001)
Degree Days  
Heating Degree Days 14 6  
Month to date heating degree days 12  
Since 1 July heating degree days 2388  
Cooling Degree Days 0 1  
Month to date cooling degree days 2  
Year to date cooling degree days 26  
Growing Degree Days 2 (Base 50)    
Moisture  
Dew Point 35 °F    
Average Humidity 56    
Maximum Humidity 87    
Minimum Humidity 30    
Precipitation  
Precipitation 0.00 in 0.09 in 1.33 in (1959)
Month to date precipitation 0.19  
Year to date precipitation 9.67  
Sea Level Pressure  
Sea Level Pressure 30.08 in    
Wind  
Wind Speed - (North)    
Max Wind Speed -    
Max Gust Speed -    
Visibility 10 miles    
Events Rain    
T = Trace of Precipitation, MM = Missing Value Source: NWS Daily Summary

Daily Weather History Graph

Daily Weather History Graph

Search for Another Location

Airport:

Trip Planner

Search our weather history database for the weather conditions in past years. The results will help you decide how hot, cold, wet, or windy it might be!

Date:

Astronomy

Apr. 02, 2013 Rise Set
Actual Time 7:05 AM EDT 7:41 PM EDT
Civil Twilight 6:39 AM EDT 8:07 PM EDT
Nautical Twilight 6:09 AM EDT 8:37 PM EDT
Astronomical Twilight 5:39 AM EDT 9:08 PM EDT
Moon 1:35 AM EDT (4/2) 12:03 PM EDT (4/2)
Length of Visible Light 13h 27m
Length of Day
12h 36m
Waning Gibbous, 56% of the Moon is Illuminated
Apr 2
Waning Gibbous
Apr 3
Last Quarter
Apr 10
New
Apr 18
First Quarter
Apr 25
Full

Hourly Weather History & Observations

Time (EDT) Temp. Dew Point Humidity Pressure Visibility Wind Dir Wind Speed Gust Speed Precip Events Conditions
12:15 AM 53.6 °F 39.2 °F 58% 29.96 in 10.0 mi North - - N/A   Clear
12:35 AM 53.6 °F 39.2 °F 58% 29.97 in 10.0 mi North - - N/A   Partly Cloudy
12:55 AM 53.6 °F 37.4 °F 54% 29.98 in 10.0 mi North - - N/A   Clear
1:15 AM 53.6 °F 37.4 °F 54% 29.98 in 10.0 mi North - - N/A   Clear
1:35 AM 51.8 °F 39.2 °F 62% 29.98 in 10.0 mi North - - N/A   Clear
1:55 AM 46.4 °F 41.0 °F 81% 29.99 in 10.0 mi North - - N/A   Clear
2:15 AM 46.4 °F 41.0 °F 81% 29.99 in 10.0 mi North - - N/A   Clear
2:35 AM 46.4 °F 41.0 °F 81% 29.99 in 10.0 mi North - - N/A   Clear
2:55 AM 44.6 °F 39.2 °F 81% 29.99 in 10.0 mi North - - N/A   Clear
3:15 AM 44.6 °F 39.2 °F 81% 30.00 in 10.0 mi North - - N/A   Clear
3:35 AM 44.6 °F 39.2 °F 81% 30.01 in 10.0 mi North - - N/A   Clear
3:55 AM 46.4 °F 39.2 °F 76% 30.02 in 10.0 mi North - - N/A   Clear
4:15 AM 44.6 °F 37.4 °F 76% 30.03 in 10.0 mi North - - N/A   Clear
4:35 AM 44.6 °F 37.4 °F 76% 30.03 in 10.0 mi North - - N/A   Clear
4:55 AM 42.8 °F 37.4 °F 81% 30.05 in 10.0 mi North - - N/A   Clear
5:15 AM 41.0 °F 37.4 °F 87% 30.06 in 10.0 mi North - - N/A   Clear
5:35 AM 41.0 °F 35.6 °F 81% 30.06 in 10.0 mi North - - N/A   Clear
5:55 AM 41.0 °F 35.6 °F 81% 30.08 in 10.0 mi North - - N/A   Clear
6:15 AM 41.0 °F 35.6 °F 81% 30.09 in 10.0 mi North - - N/A   Clear
6:35 AM 42.8 °F 33.8 °F 70% 30.09 in 10.0 mi North - - N/A   Clear
6:55 AM 41.0 °F 33.8 °F 76% 30.10 in 10.0 mi North - - N/A   Clear
7:15 AM 39.2 °F 35.6 °F 87% 30.12 in 10.0 mi North - - N/A   Clear
7:35 AM 41.0 °F 33.8 °F 76% 30.13 in 10.0 mi North - - N/A   Clear
7:55 AM 41.0 °F 35.6 °F 81% 30.14 in 10.0 mi North - - N/A   Clear
8:15 AM 42.8 °F 37.4 °F 81% 30.15 in 10.0 mi North - - N/A   Clear
8:35 AM 44.6 °F 35.6 °F 71% 30.16 in 10.0 mi North - - N/A   Clear
8:55 AM 46.4 °F 35.6 °F 66% 30.15 in 10.0 mi North - - N/A   Clear
9:15 AM 48.2 °F 32.0 °F 54% 30.17 in 9.0 mi North - - N/A   Clear
9:35 AM 48.2 °F 30.2 °F 50% 30.17 in 10.0 mi North - - N/A   Clear
9:55 AM 50.0 °F 30.2 °F 47% 30.17 in 7.0 mi North - - N/A   Clear
10:35 AM 51.8 °F 28.4 °F 41% 30.16 in 10.0 mi North - - N/A   Clear
10:55 AM 53.6 °F 28.4 °F 38% 30.17 in 10.0 mi North - - N/A   Clear
11:15 AM 53.6 °F 26.6 °F 35% 30.17 in 10.0 mi North - - N/A   Clear
11:35 AM 53.6 °F 28.4 °F 38% 30.16 in 10.0 mi North - - N/A   Clear
11:55 AM 55.4 °F 28.4 °F 36% 30.16 in 10.0 mi North - - N/A   Clear
12:15 PM 55.4 °F 30.2 °F 38% 30.15 in 10.0 mi North - - N/A   Clear
12:35 PM 57.2 °F 28.4 °F 33% 30.14 in 10.0 mi North - - N/A   Clear
12:55 PM 57.2 °F 28.4 °F 33% 30.14 in 10.0 mi North - - N/A   Clear
1:15 PM 57.2 °F 28.4 °F 33% 30.14 in 10.0 mi North - - N/A   Clear
1:35 PM 59.0 °F 30.2 °F 34% 30.12 in 10.0 mi North - - N/A   Clear
1:55 PM 59.0 °F 28.4 °F 31% 30.11 in 10.0 mi North - - N/A   Clear
2:15 PM 60.8 °F 32.0 °F 34% 30.11 in 10.0 mi North - - N/A   Clear
2:35 PM 60.8 °F 32.0 °F 34% 30.10 in 10.0 mi North - - N/A   Clear
2:55 PM 60.8 °F 32.0 °F 34% 30.09 in 10.0 mi North - - N/A   Clear
3:15 PM 60.8 °F 32.0 °F 34% 30.08 in 10.0 mi North - - N/A   Clear
3:35 PM 62.6 °F 32.0 °F 32% 30.07 in 10.0 mi North - - N/A   Clear
3:55 PM 62.6 °F 32.0 °F 32% 30.06 in 10.0 mi North - - N/A   Clear
4:15 PM 62.6 °F 32.0 °F 32% 30.06 in 10.0 mi North - - N/A   Clear
4:35 PM 62.6 °F 32.0 °F 32% 30.06 in 10.0 mi North - - N/A   Clear
4:55 PM 64.4 °F 32.0 °F 30% 30.05 in 10.0 mi North - - N/A   Clear
5:15 PM 64.4 °F 32.0 °F 30% 30.05 in 10.0 mi North - - N/A   Clear
5:35 PM 62.6 °F 32.0 °F 32% 30.05 in 10.0 mi North - - N/A   Clear
5:55 PM 64.4 °F 32.0 °F 30% 30.05 in 10.0 mi North - - N/A   Clear
6:15 PM 62.6 °F 32.0 °F 32% 30.05 in 10.0 mi North - - N/A   Clear
6:35 PM 62.6 °F 32.0 °F 32% 30.05 in 10.0 mi North - - N/A   Clear
6:55 PM 62.6 °F 35.6 °F 37% 30.05 in 10.0 mi North - - N/A   Clear
7:15 PM 59.0 °F 37.4 °F 45% 30.06 in 10.0 mi North - - N/A Rain Light Rain
7:35 PM 57.2 °F 37.4 °F 48% 30.06 in 10.0 mi North - - N/A   Clear
7:55 PM 57.2 °F 37.4 °F 48% 30.06 in 10.0 mi North - - N/A   Clear
8:15 PM 51.8 °F 39.2 °F 62% 30.06 in 10.0 mi North - - N/A   Clear
8:35 PM 53.6 °F 37.4 °F 54% 30.07 in 10.0 mi North - - N/A   Clear
8:55 PM 53.6 °F 37.4 °F 54% 30.07 in 10.0 mi North - - N/A   Clear
9:15 PM 50.0 °F 37.4 °F 62% 30.07 in 10.0 mi North - - N/A   Clear
9:35 PM 48.2 °F 37.4 °F 66% 30.08 in 10.0 mi North - - N/A   Clear
9:55 PM 50.0 °F 39.2 °F 66% 30.08 in 10.0 mi North - - N/A   Mostly Cloudy
10:15 PM 48.2 °F 41.0 °F 76% 30.09 in 10.0 mi North - - N/A   Mostly Cloudy
10:35 PM 48.2 °F 41.0 °F 76% 30.09 in 10.0 mi North - - N/A   Scattered Clouds
10:55 PM 48.2 °F 41.0 °F 76% 30.10 in 10.0 mi North - - N/A   Scattered Clouds
11:15 PM 50.0 °F 37.4 °F 62% 30.10 in 10.0 mi North - - N/A   Mostly Cloudy
11:35 PM 48.2 °F 41.0 °F 76% 30.10 in 10.0 mi North - - N/A   Overcast
11:55 PM 48.2 °F 42.8 °F 82% 30.11 in 10.0 mi North - - N/A   Overcast